EW8080 Weather Reports


Display with metric or nautical units.
time (UTC)temp
F
wind
direction
speed
MPH
gust
MPH
rain 1hr
in
rain 24hr
in
rain mn
in
humidity
%
barometer
mb
20260510162003 66 181 10.0 21.0 0.00 0.20 0.00 78 1014.0
20260510161024 66 211 11.0 21.0 0.00 0.20 0.00 78 1014.0
20260510160003 66 175 10.0 15.0 0.00 0.20 0.00 78 1013.7
20260510155003 65 203 7.0 15.0 0.00 0.20 0.00 80 1014.0
20260510154024 64 210 7.0 15.0 0.00 0.20 0.00 81 1014.1
20260510153003 64 223 7.0 15.0 0.00 0.20 0.00 82 1014.1
20260510152003 62 250 8.0 14.0 0.00 0.20 0.00 84 1014.1
20260510151003 62 213 7.0 14.0 0.00 0.20 0.00 84 1014.1
20260510150003 62 193 5.0 13.0 0.00 0.20 0.00 83 1014.2
20260510145003 63 212 7.0 13.0 0.00 0.20 0.00 83 1013.9
20260510144003 62 204 6.0 9.0 0.00 0.20 0.00 84 1014.1
20260510143003 62 203 6.0 9.0 0.00 0.20 0.00 85 1014.1
20260510142004 61 193 6.0 8.0 0.00 0.20 0.00 86 1014.0
20260510141024 60 214 4.0 11.0 0.00 0.20 0.00 87 1014.0
20260510140003 60 245 5.0 13.0 0.00 0.20 0.00 88 1014.0
20260510135024 60 218 6.0 16.0 0.00 0.20 0.00 88 1013.5
20260510134003 59 176 8.0 16.0 0.00 0.20 0.00 88 1013.1
20260510133003 59 183 9.0 13.0 0.00 0.20 0.00 89 1013.3
20260510132003 59 203 7.0 17.0 0.00 0.20 0.00 89 1013.2
20260510131003 59 181 5.0 17.0 0.00 0.20 0.00 89 1013.1
20260510130003 59 205 6.0 12.0 0.00 0.20 0.00 90 1013.1
20260510125003 59 222 5.0 12.0 0.00 0.20 0.00 91 1013.3
20260510124003 58 188 5.0 11.0 0.00 0.20 0.00 90 1013.1
20260510123003 58 203 6.0 9.0 0.00 0.20 0.00 91 1013.3
20260510122003 58 223 4.0 7.0 0.00 0.20 0.00 92 1013.3
20260510121003 58 194 3.0 7.0 0.00 0.20 0.00 92 1013.3
20260510120025 58 166 4.0 7.0 0.00 0.20 0.00 93 1013.4
20260510115024 57 176 4.0 7.0 0.00 0.20 0.00 93 1013.5
20260510114003 57 140 4.0 5.0 0.00 0.21 0.00 94 1013.5
20260510113003 56 155 2.0 6.0 0.00 0.22 0.00 95 1013.5
20260510112003 56 164 4.0 6.0 0.00 0.22 0.00 95 1013.4
20260510111003 56 181 5.0 6.0 0.00 0.23 0.00 96 1013.4
20260510110003 55 173 3.0 6.0 0.00 0.24 0.00 96 1013.4
20260510105003 55 185 3.0 6.0 0.00 0.24 0.00 96 1013.5
20260510104024 55 194 3.0 6.0 0.00 0.25 0.00 96 1013.3
20260510103003 55 220 2.0 6.0 0.00 0.25 0.00 96 1013.3
20260510102003 54 188 4.0 7.0 0.00 0.25 0.00 96 1013.2
20260510101003 54 190 4.0 7.0 0.00 0.25 0.00 96 1013.2
20260510100003 54 177 5.0 6.0 0.00 0.25 0.00 96 1013.1
20260510095003 54 192 2.0 7.0 0.00 0.25 0.00 96 1013.2
20260510094003 54 184 4.0 7.0 0.00 0.25 0.00 95 1012.9
20260510093003 54 185 2.0 5.0 0.00 0.25 0.00 95 1012.7
20260510092003 54 136 2.0 6.0 0.00 0.25 0.00 95 1012.7
20260510091003 54 203 3.0 6.0 0.00 0.25 0.00 95 1012.5
20260510090003 54 191 2.0 6.0 0.00 0.25 0.00 95 1012.6
20260510085004 54 207 3.0 6.0 0.00 0.25 0.00 95 1012.5
20260510084024 54 230 3.0 4.0 0.00 0.25 0.00 95 1012.6
20260510083004 54 227 2.0 6.0 0.00 0.25 0.00 96 1012.4
20260510082003 54 207 3.0 7.0 0.00 0.25 0.00 96 1012.5
20260510081003 54 216 4.0 11.0 0.00 0.25 0.00 96 1012.7
20260510080003 54 201 3.0 11.0 0.00 0.25 0.00 96 1012.4
20260510075003 54 219 3.0 6.0 0.00 0.25 0.00 96 1012.4
20260510074003 54 205 3.0 10.0 0.00 0.25 0.00 96 1012.3
20260510073003 54 211 4.0 12.0 0.00 0.25 0.00 97 1012.3
20260510072003 54 215 5.0 14.0 0.00 0.25 0.00 97 1012.3
20260510071025 54 219 6.0 15.0 0.00 0.25 0.00 97 1012.2
20260510070025 54 205 6.0 15.0 0.00 0.25 0.00 97 1012.1
20260510065024 54 214 7.0 13.0 0.00 0.25 0.00 97 1011.9
20260510064003 54 210 6.0 10.0 0.00 0.25 0.00 97 1012.1
20260510063003 54 205 5.0 13.0 0.00 0.25 0.00 97 1012.1
20260510062003 54 206 5.0 13.0 0.00 0.25 0.00 97 1012.1
20260510061003 54 218 5.0 14.0 0.00 0.25 0.00 97 1012.0
20260510060024 54 220 6.0 14.0 0.00 0.25 0.00 97 1012.1
20260510055024 54 209 6.0 26.0 0.00 0.25 0.00 97 1012.1
20260510054003 54 220 5.0 26.0 0.00 0.25 0.00 97 1012.3
20260510053003 54 205 7.0 19.0 0.00 0.25 0.00 97 1012.1
20260510052003 54 209 8.0 19.0 0.00 0.25 0.00 97 1012.0
20260510051003 54 183 10.0 19.0 0.00 0.25 0.00 96 1012.2
20260510050003 55 209 9.0 15.0 0.00 0.25 0.00 96 1012.1
20260510045024 55 221 7.0 19.0 0.00 0.25 0.00 96 1012.1
20260510044003 55 211 8.0 19.0 0.00 0.25 0.00 96 1012.2
20260510043024 55 210 9.0 20.0 0.00 0.25 0.00 96 1012.3
20260510042003 55 163 9.0 20.0 0.00 0.25 0.00 96 1012.3
20260510041003 54 197 11.0 20.0 0.00 0.25 0.00 95 1012.2
20260510040003 54 193 6.0 20.0 0.00 0.25 0.00 95 1012.2
20260510035003 54 176 9.0 22.0 0.02 0.25 0.25 95 1012.2
20260510034003 54 176 12.0 22.0 0.02 0.25 0.25 95 1011.9
20260510033003 54 169 14.0 22.0 0.02 0.25 0.25 94 1012.0
20260510032003 53 153 9.0 14.0 0.02 0.25 0.25 93 1012.3
20260510031003 53 159 6.0 19.0 0.02 0.25 0.25 92 1012.2
20260510030003 53 168 8.0 19.0 0.02 0.25 0.25 92 1012.3
20260510025003 53 150 11.0 15.0 0.01 0.24 0.24 91 1012.3
20260510024003 53 166 8.0 15.0 0.01 0.24 0.24 91 1012.7
20260510023003 53 156 7.0 16.0 0.02 0.23 0.23 90 1012.5
20260510022002 53 162 11.0 17.0 0.02 0.23 0.23 91 1012.8
20260510021002 53 151 10.0 17.0 0.03 0.23 0.23 91 1013.1
20260510020002 53 157 9.0 17.0 0.03 0.23 0.23 91 1013.6
20260510015003 53 164 12.0 17.0 0.03 0.23 0.23 92 1013.5
20260510014023 53 164 10.0 17.0 0.04 0.22 0.22 92 1013.5
20260510013023 53 167 10.0 20.0 0.04 0.22 0.22 92 1013.9
20260510012002 53 148 8.0 20.0 0.05 0.21 0.21 92 1014.0
20260510011002 53 178 11.0 19.0 0.05 0.21 0.21 92 1013.9
20260510010002 53 175 12.0 19.0 0.05 0.20 0.20 92 1014.3
20260510005023 54 192 6.0 16.0 0.06 0.20 0.20 92 1014.4
20260510004002 53 198 7.0 16.0 0.05 0.19 0.19 93 1014.3
20260510003023 54 197 11.0 16.0 0.06 0.17 0.17 92 1014.4
20260510002002 54 219 7.0 16.0 0.05 0.16 0.16 93 1014.1
20260510001002 54 209 11.0 16.0 0.05 0.16 0.16 92 1014.2
20260510000002 54 217 8.0 15.0 0.05 0.15 0.15 92 1014.4
20260509235002 54 251 8.0 14.0 0.05 0.14 0.14 91 1014.3
20260509234002 55 237 6.0 15.0 0.05 0.13 0.13 91 1014.1
20260509233002 55 212 6.0 15.0 0.04 0.12 0.12 91 1014.2
20260509232002 55 234 8.0 15.0 0.03 0.12 0.12 90 1013.9
20260509231003 55 248 5.0 11.0 0.03 0.11 0.11 89 1013.7
20260509230023 55 241 8.0 11.0 0.02 0.10 0.10 89 1014.1
20260509225003 55 240 7.0 10.0 0.02 0.09 0.09 88 1013.9
20260509224023 55 232 7.0 10.0 0.02 0.08 0.08 87 1014.0
20260509223003 55 230 6.0 16.0 0.02 0.08 0.08 87 1013.9
20260509222003 55 213 8.0 16.0 0.02 0.08 0.08 88 1013.6
20260509221024 55 263 4.0 14.0 0.02 0.08 0.08 88 1013.3
20260509220003 56 219 8.0 16.0 0.02 0.08 0.08 87 1013.5
20260509215003 56 216 6.0 17.0 0.02 0.07 0.07 87 1013.2
20260509214003 56 220 10.0 17.0 0.01 0.07 0.07 86 1013.3
20260509213003 57 194 9.0 19.0 0.01 0.06 0.06 84 1013.2
20260509212003 57 219 10.0 22.0 0.00 0.06 0.06 81 1013.2
20260509211003 58 220 12.0 22.0 0.00 0.05 0.05 78 1013.0
20260509210004 58 197 11.0 21.0 0.00 0.05 0.05 77 1012.9
20260509205003 59 210 10.0 24.0 0.00 0.05 0.05 76 1012.9
20260509204004 59 226 10.0 24.0 0.00 0.05 0.05 76 1013.0
20260509203003 59 218 10.0 22.0 0.00 0.05 0.05 77 1013.1
20260509202003 59 206 9.0 17.0 0.00 0.05 0.05 77 1013.2
20260509201003 59 224 8.0 18.0 0.00 0.05 0.05 78 1013.1
20260509200003 59 219 9.0 24.0 0.00 0.05 0.05 80 1013.2
20260509195003 60 207 9.0 24.0 0.00 0.05 0.05 76 1013.1
20260509194003 60 198 11.0 28.0 0.00 0.05 0.05 75 1013.3
20260509193003 60 198 8.0 28.0 0.00 0.05 0.05 75 1013.5
20260509192003 60 213 11.0 28.0 0.00 0.05 0.05 74 1013.5
20260509191003 60 232 9.0 15.0 0.00 0.05 0.05 75 1013.5
20260509190003 60 198 7.0 16.0 0.00 0.05 0.05 75 1013.5
20260509185003 60 210 7.0 18.0 0.00 0.05 0.05 75 1013.5
20260509184003 60 193 11.0 18.0 0.00 0.05 0.05 73 1013.7
20260509183024 61 176 11.0 17.0 0.00 0.05 0.05 71 1013.5
20260509182003 62 192 10.0 18.0 0.00 0.05 0.05 71 1013.7
20260509181004 62 196 9.0 20.0 0.00 0.05 0.05 71 1013.7
20260509180003 63 200 9.0 20.0 0.00 0.05 0.05 70 1014.0
20260509175003 62 222 7.0 20.0 0.00 0.05 0.05 73 1013.6
20260509174003 61 205 11.0 20.0 0.00 0.05 0.05 71 1014.1
20260509173004 61 191 10.0 16.0 0.00 0.05 0.05 71 1014.1
20260509172003 61 206 7.0 16.0 0.00 0.05 0.05 71 1014.2
20260509171024 61 209 10.0 21.0 0.00 0.05 0.05 70 1014.3
20260509170024 61 219 7.0 21.0 0.00 0.05 0.05 69 1014.4
20260509165003 62 216 9.0 16.0 0.00 0.05 0.05 67 1014.3
20260509164003 62 195 11.0 20.0 0.00 0.05 0.05 67 1014.1
20260509163003 62 204 9.0 20.0 0.00 0.05 0.05 67 1014.1